status,avgMeasuredTime,avgSpeed,extID,medianMeasuredTime,TIMESTAMP,vehicleCount,_id,REPORT_ID
OK,33,58,829,33,2014-08-01T07:55:00,13,20746553,190555
OK,37,52,829,37,2014-08-01T08:00:00,15,20746884,190555
OK,40,48,829,40,2014-08-01T08:05:00,16,20747333,190555
OK,48,40,829,48,2014-08-01T08:10:00,8,20747706,190555
OK,32,60,829,32,2014-08-01T08:15:00,10,20748155,190555
OK,35,55,829,35,2014-08-01T08:20:00,26,20748604,190555
OK,38,50,829,38,2014-08-01T08:25:00,21,20749053,190555
OK,40,48,829,40,2014-08-01T08:30:00,11,20749502,190555
OK,36,53,829,36,2014-08-01T08:35:00,12,20749951,190555
OK,33,58,829,33,2014-08-01T08:40:00,16,20750400,190555
OK,33,58,829,33,2014-08-01T08:45:00,19,20750849,190555
OK,34,56,829,34,2014-08-01T08:50:00,17,20751298,190555
OK,33,58,829,33,2014-08-01T08:55:00,10,20751747,190555
OK,39,49,829,39,2014-08-01T09:00:00,13,20752196,190555
OK,39,49,829,39,2014-08-01T09:05:00,25,20752645,190555
OK,38,50,829,38,2014-08-01T09:10:00,24,20753094,190555
OK,37,52,829,37,2014-08-01T09:15:00,16,20753543,190555
OK,37,52,829,37,2014-08-01T09:20:00,13,20753992,190555
OK,34,56,829,34,2014-08-01T09:25:00,11,20754441,190555
OK,33,58,829,33,2014-08-01T09:30:00,5,20754890,190555
OK,32,60,829,32,2014-08-01T09:35:00,9,20755339,190555
OK,37,52,829,37,2014-08-01T09:40:00,16,20755788,190555
OK,36,53,829,36,2014-08-01T09:45:00,14,20756237,190555
OK,38,50,829,38,2014-08-01T09:50:00,10,20756686,190555
OK,41,46,829,41,2014-08-01T09:55:00,18,20757135,190555
OK,40,48,829,40,2014-08-01T10:00:00,21,20757584,190555
OK,33,58,829,33,2014-08-01T10:05:00,14,20758033,190555
OK,36,53,829,36,2014-08-01T10:10:00,16,20758482,190555
OK,33,58,829,33,2014-08-01T10:15:00,11,20758931,190555
OK,33,58,829,33,2014-08-01T10:20:00,13,20759380,190555
OK,35,55,829,35,2014-08-01T10:25:00,14,20759829,190555
OK,38,50,829,38,2014-08-01T10:30:00,15,20760278,190555
OK,37,52,829,37,2014-08-01T10:35:00,12,20760727,190555
OK,34,56,829,34,2014-08-01T10:40:00,11,20761176,190555
OK,35,55,829,35,2014-08-01T10:45:00,13,20761625,190555
OK,33,58,829,33,2014-08-01T10:50:00,10,20762074,190555
OK,36,53,829,36,2014-08-01T10:55:00,12,20762523,190555
OK,38,50,829,38,2014-08-01T11:00:00,11,20762972,190555
OK,38,50,829,38,2014-08-01T11:05:00,16,20763421,190555
OK,38,50,829,38,2014-08-01T11:10:00,19,20763870,190555
OK,35,55,829,35,2014-08-01T11:15:00,24,20764318,190555
OK,36,53,829,36,2014-08-01T11:20:00,23,20764767,190555
OK,35,55,829,35,2014-08-01T11:25:00,20,20765216,190555
OK,37,52,829,37,2014-08-01T11:30:00,13,20765665,190555
OK,38,50,829,38,2014-08-01T11:35:00,12,20766114,190555
OK,37,52,829,37,2014-08-01T11:40:00,14,20766563,190555
OK,31,62,829,31,2014-08-01T11:45:00,6,20767012,190555
OK,32,60,829,32,2014-08-01T11:50:00,9,20767461,190555
OK,32,60,829,32,2014-08-01T11:55:00,12,20767910,190555
OK,36,53,829,36,2014-08-01T12:00:00,17,20768359,190555
OK,36,53,829,36,2014-08-01T12:05:00,20,20768808,190555
OK,35,55,829,35,2014-08-01T12:10:00,15,20769257,190555
OK,32,60,829,32,2014-08-01T12:15:00,13,20769706,190555
OK,30,64,829,30,2014-08-01T12:20:00,19,20770155,190555
OK,31,62,829,31,2014-08-01T12:25:00,15,20770604,190555
OK,34,56,829,34,2014-08-01T12:30:00,14,20771053,190555
OK,35,55,829,35,2014-08-01T12:35:00,19,20771502,190555
OK,34,56,829,34,2014-08-01T12:40:00,16,20771951,190555
OK,34,56,829,34,2014-08-01T12:45:00,23,20772400,190555
OK,34,56,829,34,2014-08-01T12:50:00,19,20772849,190555
OK,40,48,829,40,2014-08-01T12:55:00,7,20773298,190555
OK,35,55,829,35,2014-08-01T13:00:00,9,20773747,190555
OK,35,55,829,35,2014-08-01T13:05:00,11,20774196,190555
OK,36,53,829,36,2014-08-01T13:10:00,16,20774645,190555
OK,36,53,829,36,2014-08-01T13:15:00,20,20775094,190555
OK,35,55,829,35,2014-08-01T13:20:00,17,20775543,190555
OK,34,56,829,34,2014-08-01T13:25:00,23,20775992,190555
OK,36,53,829,36,2014-08-01T13:30:00,30,20776441,190555
OK,35,55,829,35,2014-08-01T13:35:00,24,20776890,190555
OK,42,45,829,42,2014-08-01T13:40:00,16,20777339,190555
OK,42,45,829,42,2014-08-01T13:45:00,29,20777788,190555
OK,40,48,829,40,2014-08-01T13:50:00,34,20778237,190555
OK,48,40,829,48,2014-08-01T13:55:00,20,20778686,190555
OK,43,44,829,43,2014-08-01T14:00:00,15,20779135,190555
OK,37,52,829,37,2014-08-01T14:05:00,10,20779584,190555
OK,43,44,829,43,2014-08-01T14:10:00,18,20780033,190555
OK,45,42,829,45,2014-08-01T14:15:00,21,20780482,190555
OK,43,44,829,43,2014-08-01T14:20:00,18,20780931,190555
OK,39,49,829,39,2014-08-01T14:25:00,24,20781380,190555
OK,42,45,829,42,2014-08-01T14:30:00,21,20781829,190555
OK,42,45,829,42,2014-08-01T14:35:00,17,20782278,190555
OK,43,44,829,43,2014-08-01T14:40:00,14,20782727,190555
OK,45,42,829,45,2014-08-01T14:45:00,13,20783176,190555
OK,41,46,829,41,2014-08-01T14:50:00,13,20783625,190555
OK,49,39,829,49,2014-08-01T14:55:00,15,20784074,190555
OK,48,40,829,48,2014-08-01T15:00:00,14,20784523,190555
OK,44,43,829,44,2014-08-01T15:05:00,13,20784972,190555
OK,42,45,829,42,2014-08-01T15:10:00,17,20785421,190555
OK,42,45,829,42,2014-08-01T15:15:00,14,20785870,190555
OK,47,40,829,47,2014-08-01T15:20:00,11,20786319,190555
OK,45,42,829,45,2014-08-01T15:25:00,9,20786768,190555
OK,39,49,829,39,2014-08-01T15:30:00,7,20787217,190555
OK,39,49,829,39,2014-08-01T15:35:00,6,20787666,190555
OK,29,66,829,29,2014-08-01T15:40:00,7,20788115,190555
OK,35,55,829,35,2014-08-01T15:45:00,14,20788564,190555
OK,37,52,829,37,2014-08-01T15:50:00,13,20789013,190555
OK,35,55,829,35,2014-08-01T15:55:00,13,20789462,190555
OK,35,55,829,35,2014-08-01T16:00:00,11,20789911,190555
OK,36,53,829,36,2014-08-01T16:05:00,15,20790360,190555
OK,36,53,829,36,2014-08-01T16:10:00,11,20790809,190555
OK,35,55,829,35,2014-08-01T16:15:00,11,20791258,190555
OK,33,58,829,33,2014-08-01T16:20:00,8,20791707,190555
OK,38,50,829,38,2014-08-01T16:25:00,4,20792156,190555
OK,32,60,829,32,2014-08-01T16:30:00,6,20792605,190555
OK,37,52,829,37,2014-08-01T16:35:00,10,20793054,190555
OK,45,42,829,45,2014-08-01T16:40:00,7,20793503,190555
OK,33,58,829,33,2014-08-01T16:45:00,8,20793952,190555
OK,29,66,829,29,2014-08-01T16:50:00,3,20794401,190555
OK,35,55,829,35,2014-08-01T16:55:00,5,20794850,190555
OK,32,60,829,32,2014-08-01T17:00:00,4,20795299,190555
OK,34,56,829,34,2014-08-01T17:05:00,4,20795748,190555
OK,37,52,829,37,2014-08-01T17:10:00,4,20796197,190555
OK,35,55,829,35,2014-08-01T17:15:00,7,20796646,190555
OK,37,52,829,37,2014-08-01T17:20:00,8,20797095,190555
OK,37,52,829,37,2014-08-01T17:25:00,7,20797544,190555
OK,37,52,829,37,2014-08-01T17:30:00,7,20797993,190555
OK,43,44,829,43,2014-08-01T17:35:00,4,20798442,190555
OK,37,52,829,37,2014-08-01T17:40:00,5,20798891,190555
OK,44,43,829,44,2014-08-01T17:45:00,1,20799340,190555
OK,28,68,829,28,2014-08-01T17:50:00,1,20799789,190555
OK,36,53,829,36,2014-08-01T17:55:00,5,20800238,190555
OK,44,43,829,44,2014-08-01T18:00:00,3,20800687,190555
OK,34,56,829,34,2014-08-01T18:05:00,5,20801136,190555
OK,34,56,829,34,2014-08-01T18:10:00,11,20801585,190555
OK,36,53,829,36,2014-08-01T18:15:00,9,20802034,190555
OK,30,64,829,30,2014-08-01T18:20:00,3,20802483,190555
OK,42,45,829,42,2014-08-01T18:25:00,5,20802932,190555
OK,42,45,829,42,2014-08-01T18:30:00,5,20803381,190555
OK,36,53,829,36,2014-08-01T18:35:00,1,20803830,190555
OK,32,60,829,32,2014-08-01T18:40:00,3,20804279,190555
OK,34,56,829,34,2014-08-01T18:45:00,5,20804728,190555
OK,35,55,829,35,2014-08-01T18:50:00,6,20805177,190555
OK,34,56,829,34,2014-08-01T18:55:00,4,20805626,190555
OK,35,55,829,35,2014-08-01T19:00:00,3,20806075,190555
OK,39,49,829,39,2014-08-01T19:05:00,4,20806524,190555
OK,38,50,829,38,2014-08-01T19:10:00,3,20806973,190555
OK,26,74,829,26,2014-08-01T19:15:00,4,20807422,190555
OK,34,56,829,34,2014-08-01T19:20:00,5,20807871,190555
OK,39,49,829,39,2014-08-01T19:25:00,6,20808320,190555
OK,37,52,829,37,2014-08-01T19:30:00,7,20808769,190555
OK,39,49,829,39,2014-08-01T19:35:00,5,20809218,190555
OK,34,56,829,34,2014-08-01T19:40:00,2,20809667,190555
OK,28,68,829,28,2014-08-01T19:45:00,4,20810116,190555
OK,41,46,829,41,2014-08-01T19:50:00,3,20810565,190555
OK,28,68,829,28,2014-08-01T19:55:00,4,20811014,190555
OK,36,53,829,36,2014-08-01T22:00:00,0,20816743,190555
OK,51,37,829,51,2014-08-01T22:05:00,1,20817192,190555
OK,35,55,829,35,2014-08-02T00:00:00,0,20823182,190555
OK,35,55,829,35,2014-08-02T00:05:00,0,20823631,190555
OK,35,55,829,35,2014-08-02T00:10:00,0,20824080,190555
OK,35,55,829,35,2014-08-02T00:15:00,0,20824529,190555
OK,35,55,829,35,2014-08-02T00:20:00,0,20824978,190555
OK,24,80,829,24,2014-08-02T00:25:00,2,20825427,190555
OK,24,80,829,24,2014-08-02T00:30:00,1,20825876,190555
OK,24,80,829,24,2014-08-02T00:35:00,0,20826325,190555
OK,24,80,829,24,2014-08-02T00:40:00,0,20826774,190555
OK,24,80,829,24,2014-08-02T00:45:00,0,20827223,190555
OK,24,80,829,24,2014-08-02T00:50:00,0,20827672,190555
OK,61,31,829,61,2014-08-02T00:55:00,2,20828121,190555
OK,42,45,829,42,2014-08-02T01:00:00,3,20828570,190555
OK,42,45,829,42,2014-08-02T01:05:00,1,20829019,190555
OK,20,96,829,20,2014-08-02T01:10:00,1,20829468,190555
OK,20,96,829,20,2014-08-02T01:15:00,0,20829917,190555
OK,20,96,829,20,2014-08-02T01:20:00,0,20830366,190555
OK,20,96,829,20,2014-08-02T01:25:00,0,20830815,190555
OK,20,96,829,20,2014-08-02T01:30:00,0,20831264,190555
OK,20,96,829,20,2014-08-02T01:35:00,0,20831713,190555
OK,20,96,829,20,2014-08-02T01:40:00,0,20832162,190555
OK,20,96,829,20,2014-08-02T01:45:00,0,20832611,190555
OK,20,96,829,20,2014-08-02T01:50:00,0,20833060,190555
OK,20,96,829,20,2014-08-02T01:55:00,0,20833509,190555
OK,20,96,829,20,2014-08-02T02:00:00,0,20833958,190555
OK,20,96,829,20,2014-08-02T02:05:00,0,20834407,190555
OK,33,58,829,33,2014-08-02T02:10:00,1,20834856,190555
OK,33,58,829,33,2014-08-02T02:15:00,1,20835305,190555
OK,22,87,829,22,2014-08-02T02:20:00,2,20835754,190555
OK,19,101,829,19,2014-08-02T02:25:00,1,20836203,190555
OK,19,101,829,19,2014-08-02T02:30:00,0,20836652,190555
OK,19,101,829,19,2014-08-02T02:35:00,0,20837101,190555
OK,19,101,829,19,2014-08-02T02:40:00,0,20837550,190555
OK,19,101,829,19,2014-08-02T02:45:00,0,20837999,190555
OK,19,101,829,19,2014-08-02T02:50:00,0,20838448,190555
OK,19,101,829,19,2014-08-02T02:55:00,0,20838897,190555
OK,19,101,829,19,2014-08-02T03:00:00,0,20839346,190555
OK,19,101,829,19,2014-08-02T03:05:00,0,20839795,190555
OK,19,101,829,19,2014-08-02T03:10:00,0,20840244,190555
OK,19,101,829,19,2014-08-02T03:15:00,0,20840693,190555
OK,29,66,829,29,2014-08-02T03:20:00,2,20841142,190555
OK,29,66,829,29,2014-08-02T03:25:00,0,20841591,190555
OK,29,66,829,29,2014-08-02T03:30:00,0,20842040,190555
OK,29,66,829,29,2014-08-02T03:35:00,0,20842489,190555
OK,29,66,829,29,2014-08-02T03:40:00,0,20842938,190555
OK,29,66,829,29,2014-08-02T03:45:00,0,20843387,190555
OK,29,66,829,29,2014-08-02T03:50:00,0,20843836,190555
OK,29,66,829,29,2014-08-02T03:55:00,0,20844285,190555
OK,49,39,829,49,2014-08-02T04:50:00,0,20847997,190555
OK,33,58,829,33,2014-08-02T06:00:00,3,20851739,190555
OK,30,64,829,30,2014-08-02T06:05:00,5,20852188,190555
OK,29,66,829,29,2014-08-02T06:10:00,4,20852637,190555
OK,31,62,829,31,2014-08-02T06:15:00,3,20853086,190555
OK,38,50,829,38,2014-08-02T06:20:00,7,20853535,190555
OK,38,50,829,38,2014-08-02T06:25:00,5,20853984,190555
OK,42,45,829,42,2014-08-02T06:30:00,3,20854433,190555
OK,38,50,829,38,2014-08-02T06:35:00,2,20854882,190555
OK,28,68,829,28,2014-08-02T06:40:00,2,20855331,190555
OK,29,66,829,29,2014-08-02T06:45:00,4,20855780,190555
OK,32,60,829,32,2014-08-02T06:50:00,2,20856229,190555
OK,32,60,829,32,2014-08-02T06:55:00,2,20856678,190555
OK,27,71,829,27,2014-08-02T07:00:00,0,20857127,190555
OK,27,71,829,27,2014-08-02T07:05:00,0,20857576,190555
OK,35,55,829,35,2014-08-02T07:10:00,8,20858025,190555
OK,33,58,829,33,2014-08-02T07:15:00,8,20858474,190555
OK,33,58,829,33,2014-08-02T07:20:00,6,20858923,190555
OK,30,64,829,30,2014-08-02T07:25:00,7,20859372,190555
OK,31,62,829,31,2014-08-02T07:30:00,9,20859821,190555
OK,33,58,829,33,2014-08-02T07:35:00,10,20860270,190555
OK,32,60,829,32,2014-08-02T07:40:00,7,20860719,190555
OK,33,58,829,33,2014-08-02T07:45:00,8,20861168,190555
OK,33,58,829,33,2014-08-02T07:50:00,14,20861617,190555
OK,34,56,829,34,2014-08-02T07:55:00,12,20862066,190555
OK,41,46,829,41,2014-08-02T08:00:00,10,20862515,190555
OK,32,60,829,32,2014-08-02T08:05:00,11,20862964,190555
OK,39,49,829,39,2014-08-02T08:10:00,6,20863413,190555
OK,34,56,829,34,2014-08-02T08:15:00,4,20863862,190555
OK,31,62,829,31,2014-08-02T08:20:00,8,20864311,190555
OK,34,56,829,34,2014-08-02T08:25:00,8,20864760,190555
OK,33,58,829,33,2014-08-02T08:30:00,13,20865209,190555
OK,34,56,829,34,2014-08-02T08:35:00,14,20865658,190555
OK,36,53,829,36,2014-08-02T08:40:00,11,20866107,190555
OK,35,55,829,35,2014-08-02T08:45:00,10,20866556,190555
OK,39,49,829,39,2014-08-02T08:50:00,9,20867005,190555
OK,35,55,829,35,2014-08-02T08:55:00,12,20867454,190555
OK,38,50,829,38,2014-08-02T09:00:00,8,20867903,190555
OK,44,43,829,44,2014-08-02T09:05:00,9,20868352,190555
OK,33,58,829,33,2014-08-02T09:10:00,15,20868801,190555
OK,34,56,829,34,2014-08-02T09:15:00,13,20869250,190555
OK,34,56,829,34,2014-08-02T09:20:00,18,20869699,190555
OK,33,58,829,33,2014-08-02T09:25:00,16,20870148,190555
OK,32,60,829,32,2014-08-02T09:30:00,14,20870597,190555
OK,34,56,829,34,2014-08-02T09:35:00,16,20871046,190555
OK,31,62,829,31,2014-08-02T09:40:00,14,20871495,190555
OK,32,60,829,32,2014-08-02T09:45:00,14,20871944,190555
OK,34,56,829,34,2014-08-02T09:50:00,10,20872393,190555
OK,35,55,829,35,2014-08-02T09:55:00,14,20872842,190555
OK,31,62,829,31,2014-08-02T10:00:00,10,20873291,190555
OK,33,58,829,33,2014-08-02T10:05:00,16,20873740,190555
OK,36,53,829,36,2014-08-02T10:10:00,24,20874189,190555
OK,37,52,829,37,2014-08-02T10:15:00,19,20874638,190555
OK,39,49,829,39,2014-08-02T10:20:00,11,20875087,190555
OK,35,55,829,35,2014-08-02T10:25:00,13,20875536,190555
OK,34,56,829,34,2014-08-02T10:30:00,16,20875985,190555
OK,33,58,829,33,2014-08-02T10:35:00,9,20876434,190555
OK,32,60,829,32,2014-08-02T10:40:00,12,20876883,190555
OK,35,55,829,35,2014-08-02T10:45:00,15,20877332,190555
OK,34,56,829,34,2014-08-02T10:50:00,15,20877781,190555
OK,34,56,829,34,2014-08-02T10:55:00,13,20878230,190555
OK,34,56,829,34,2014-08-02T11:00:00,18,20878679,190555
OK,34,56,829,34,2014-08-02T11:05:00,19,20879128,190555
OK,31,62,829,31,2014-08-02T11:10:00,14,20879577,190555
OK,31,62,829,31,2014-08-02T11:15:00,10,20880026,190555
OK,36,53,829,36,2014-08-02T11:20:00,13,20880475,190555
OK,34,56,829,34,2014-08-02T11:25:00,12,20880924,190555
OK,32,60,829,32,2014-08-02T11:30:00,14,20881373,190555
OK,31,62,829,31,2014-08-02T11:35:00,18,20881822,190555
OK,31,62,829,31,2014-08-02T11:40:00,10,20882271,190555
OK,29,66,829,29,2014-08-02T11:45:00,10,20882720,190555
OK,29,66,829,29,2014-08-02T11:50:00,14,20883169,190555
OK,37,52,829,37,2014-08-02T11:55:00,9,20883618,190555
OK,32,60,829,32,2014-08-02T12:00:00,9,20884067,190555
OK,33,58,829,33,2014-08-02T12:05:00,15,20884516,190555
OK,28,68,829,28,2014-08-02T12:10:00,13,20884965,190555
OK,28,68,829,28,2014-08-02T12:15:00,10,20885414,190555
OK,35,55,829,35,2014-08-02T12:20:00,6,20885863,190555
OK,33,58,829,33,2014-08-02T12:25:00,10,20886312,190555
OK,38,50,829,38,2014-08-02T12:30:00,13,20886761,190555
OK,40,48,829,40,2014-08-02T12:35:00,12,20887210,190555
OK,38,50,829,38,2014-08-02T12:40:00,14,20887659,190555
OK,31,62,829,31,2014-08-02T12:45:00,15,20888108,190555
OK,34,56,829,34,2014-08-02T12:50:00,18,20888557,190555
OK,34,56,829,34,2014-08-02T12:55:00,18,20889006,190555
OK,32,60,829,32,2014-08-02T13:00:00,11,20889455,190555
OK,33,58,829,33,2014-08-02T13:05:00,7,20889904,190555
OK,38,50,829,38,2014-08-02T13:10:00,5,20890353,190555
OK,35,55,829,35,2014-08-02T13:15:00,4,20890802,190555
OK,33,58,829,33,2014-08-02T13:20:00,7,20891251,190555
OK,38,50,829,38,2014-08-02T13:25:00,11,20891700,190555
OK,37,52,829,37,2014-08-02T13:30:00,9,20892149,190555
OK,36,53,829,36,2014-08-02T13:35:00,9,20892598,190555
OK,32,60,829,32,2014-08-02T13:40:00,10,20893047,190555
OK,33,58,829,33,2014-08-02T13:45:00,12,20893496,190555
OK,34,56,829,34,2014-08-02T13:50:00,11,20893945,190555
OK,30,64,829,30,2014-08-02T13:55:00,11,20894394,190555
OK,30,64,829,30,2014-08-02T14:00:00,14,20894843,190555
OK,36,53,829,36,2014-08-02T14:05:00,11,20895292,190555
OK,36,53,829,36,2014-08-02T14:10:00,14,20895741,190555
OK,31,62,829,31,2014-08-02T14:15:00,17,20896190,190555
OK,34,56,829,34,2014-08-02T14:20:00,18,20896639,190555
OK,32,60,829,32,2014-08-02T14:25:00,7,20897088,190555
OK,34,56,829,34,2014-08-02T14:30:00,6,20897537,190555
OK,34,56,829,34,2014-08-02T14:35:00,10,20897986,190555
OK,36,53,829,36,2014-08-02T14:40:00,12,20898435,190555
OK,38,50,829,38,2014-08-02T14:45:00,11,20898884,190555
OK,33,58,829,33,2014-08-02T14:50:00,8,20899333,190555
OK,33,58,829,33,2014-08-02T14:55:00,8,20899782,190555
OK,32,60,829,32,2014-08-02T15:00:00,10,20900231,190555
OK,31,62,829,31,2014-08-02T15:05:00,10,20900680,190555
OK,30,64,829,30,2014-08-02T15:10:00,12,20901129,190555
OK,31,62,829,31,2014-08-02T15:15:00,9,20901578,190555
OK,30,64,829,30,2014-08-02T15:20:00,4,20902027,190555
OK,36,53,829,36,2014-08-02T15:25:00,9,20902476,190555
OK,36,53,829,36,2014-08-02T15:30:00,5,20902925,190555
OK,53,36,829,53,2014-08-02T15:35:00,1,20903374,190555
OK,45,42,829,45,2014-08-02T15:40:00,2,20903823,190555
OK,37,52,829,37,2014-08-02T15:45:00,4,20904272,190555
OK,39,49,829,39,2014-08-02T15:50:00,7,20904721,190555
OK,39,49,829,39,2014-08-02T15:55:00,7,20905170,190555
OK,36,53,829,36,2014-08-02T16:00:00,6,20905619,190555
OK,35,55,829,35,2014-08-02T16:05:00,9,20906068,190555
OK,31,62,829,31,2014-08-02T16:10:00,12,20906517,190555
OK,32,60,829,32,2014-08-02T16:15:00,13,20906966,190555
OK,34,56,829,34,2014-08-02T16:20:00,7,20907415,190555
OK,26,74,829,26,2014-08-02T16:25:00,5,20907864,190555
OK,31,62,829,31,2014-08-02T16:30:00,9,20908313,190555
OK,37,52,829,37,2014-08-02T16:35:00,8,20908762,190555
OK,48,40,829,48,2014-08-02T16:40:00,3,20909211,190555
OK,29,66,829,29,2014-08-02T16:45:00,5,20909660,190555
OK,36,53,829,36,2014-08-02T16:50:00,6,20910109,190555
OK,39,49,829,39,2014-08-02T16:55:00,4,20910558,190555
OK,41,46,829,41,2014-08-02T17:00:00,3,20911007,190555
OK,41,46,829,41,2014-08-02T17:05:00,4,20911456,190555
OK,37,52,829,37,2014-08-02T17:10:00,6,20911905,190555
OK,37,52,829,37,2014-08-02T17:15:00,6,20912354,190555
OK,44,43,829,44,2014-08-02T17:20:00,3,20912803,190555
OK,34,56,829,34,2014-08-02T17:25:00,4,20913252,190555
OK,32,60,829,32,2014-08-02T17:30:00,6,20913701,190555
OK,27,71,829,27,2014-08-02T17:35:00,2,20914150,190555
OK,31,62,829,31,2014-08-02T17:40:00,3,20914599,190555
OK,34,56,829,34,2014-08-02T17:45:00,5,20915048,190555
OK,40,48,829,40,2014-08-02T17:50:00,1,20915497,190555
OK,41,46,829,41,2014-08-02T17:55:00,4,20915946,190555
OK,42,45,829,42,2014-08-02T18:00:00,1,20916395,190555
OK,38,50,829,38,2014-08-02T18:05:00,2,20916844,190555
OK,28,68,829,28,2014-08-02T18:10:00,2,20917293,190555
OK,41,46,829,41,2014-08-02T18:15:00,6,20917742,190555
OK,40,48,829,40,2014-08-02T18:20:00,5,20918191,190555
OK,33,58,829,33,2014-08-02T18:25:00,3,20918640,190555
OK,49,39,829,49,2014-08-02T18:30:00,3,20919089,190555
OK,50,38,829,50,2014-08-02T18:35:00,4,20919538,190555
OK,39,49,829,39,2014-08-02T18:40:00,5,20919987,190555
OK,39,49,829,39,2014-08-02T18:45:00,5,20920436,190555
OK,46,41,829,46,2014-08-02T18:50:00,3,20920885,190555
OK,71,27,829,71,2014-08-02T18:55:00,1,20921334,190555
OK,36,53,829,36,2014-08-02T19:00:00,1,20921783,190555
OK,31,62,829,31,2014-08-02T19:05:00,2,20922232,190555
OK,33,58,829,33,2014-08-02T19:10:00,3,20922681,190555
OK,33,58,829,33,2014-08-02T19:15:00,3,20923130,190555
OK,42,45,829,42,2014-08-02T19:20:00,4,20923579,190555
OK,43,44,829,43,2014-08-02T19:25:00,6,20924028,190555
OK,32,60,829,32,2014-08-02T19:30:00,8,20924477,190555
OK,33,58,829,33,2014-08-02T19:35:00,7,20924926,190555
OK,31,62,829,31,2014-08-02T19:40:00,3,20925375,190555
OK,30,64,829,30,2014-08-02T19:45:00,5,20925824,190555
OK,32,60,829,32,2014-08-02T19:50:00,5,20926273,190555
OK,48,40,829,48,2014-08-02T19:55:00,4,20926722,190555
OK,146,13,829,146,2014-08-02T20:00:00,1,20927171,190555
OK,83,23,829,83,2014-08-02T20:05:00,2,20927620,190555
OK,20,96,829,20,2014-08-02T20:10:00,1,20928069,190555
OK,47,40,829,47,2014-08-02T20:15:00,1,20928518,190555
OK,49,39,829,49,2014-08-02T20:20:00,2,20928967,190555
OK,31,62,829,31,2014-08-02T20:25:00,3,20929416,190555
OK,35,55,829,35,2014-08-02T20:30:00,4,20929865,190555
OK,39,49,829,39,2014-08-02T20:35:00,0,20930314,190555
OK,35,55,829,35,2014-08-02T20:40:00,3,20930763,190555
OK,31,62,829,31,2014-08-02T20:45:00,8,20931212,190555
OK,29,66,829,29,2014-08-02T20:50:00,8,20931661,190555
OK,32,60,829,32,2014-08-02T20:55:00,5,20932110,190555
OK,46,41,829,46,2014-08-02T21:00:00,2,20932559,190555
OK,37,52,829,37,2014-08-02T21:05:00,2,20933008,190555
OK,33,58,829,33,2014-08-02T21:10:00,2,20933457,190555
OK,35,55,829,35,2014-08-02T21:15:00,4,20933906,190555
OK,68,28,829,68,2014-08-02T21:20:00,1,20934355,190555
OK,35,55,829,35,2014-08-02T21:25:00,2,20934804,190555
OK,40,48,829,40,2014-08-02T21:30:00,1,20935253,190555
OK,33,58,829,33,2014-08-02T21:35:00,2,20935702,190555
OK,39,49,829,39,2014-08-02T21:40:00,3,20936151,190555
OK,29,66,829,29,2014-08-02T21:45:00,2,20936600,190555
OK,21,91,829,21,2014-08-02T21:50:00,1,20937049,190555
OK,42,45,829,42,2014-08-02T21:55:00,6,20937498,190555
OK,25,77,829,25,2014-08-02T22:00:00,0,20937947,190555
OK,25,77,829,25,2014-08-02T22:05:00,0,20938396,190555
OK,25,77,829,25,2014-08-02T22:10:00,0,20938845,190555
OK,25,77,829,25,2014-08-02T22:15:00,0,20939294,190555
OK,32,60,829,32,2014-08-02T22:20:00,2,20939743,190555
OK,26,74,829,26,2014-08-02T22:25:00,1,20940192,190555
OK,26,74,829,26,2014-08-02T22:30:00,0,20940641,190555
OK,36,53,829,36,2014-08-02T22:35:00,1,20941090,190555
OK,61,31,829,61,2014-08-02T22:40:00,2,20941539,190555
OK,72,26,829,72,2014-08-02T22:45:00,1,20941988,190555
OK,33,58,829,33,2014-08-02T22:50:00,3,20942437,190555
OK,36,53,829,36,2014-08-02T22:55:00,4,20942886,190555
OK,40,48,829,40,2014-08-02T23:00:00,2,20943335,190555
OK,42,45,829,42,2014-08-02T23:10:00,0,20943784,190555
OK,39,49,829,39,2014-08-02T23:15:00,4,20944233,190555
OK,40,48,829,40,2014-08-02T23:20:00,3,20944682,190555
OK,36,53,829,36,2014-08-02T23:25:00,0,20945131,190555
OK,36,53,829,36,2014-08-02T23:30:00,0,20945580,190555
OK,24,80,829,24,2014-08-02T23:35:00,0,20946029,190555
OK,24,80,829,24,2014-08-02T23:40:00,0,20946478,190555
OK,24,80,829,24,2014-08-02T23:45:00,0,20946927,190555
OK,37,52,829,37,2014-08-02T23:50:00,2,20947376,190555
OK,37,52,829,37,2014-08-02T23:55:00,2,20947825,190555
OK,37,52,829,37,2014-08-03T00:00:00,0,20948274,190555
OK,37,52,829,37,2014-08-03T00:05:00,0,20948723,190555
OK,37,52,829,37,2014-08-03T00:10:00,0,20949171,190555
OK,37,52,829,37,2014-08-03T00:15:00,0,20949620,190555
OK,37,52,829,37,2014-08-03T00:20:00,0,20950069,190555
OK,33,58,829,33,2014-08-03T00:25:00,2,20950518,190555
OK,32,60,829,32,2014-08-03T00:30:00,3,20950967,190555
OK,31,62,829,31,2014-08-03T00:35:00,0,20951416,190555
OK,45,42,829,45,2014-08-03T00:40:00,3,20951865,190555
OK,30,64,829,30,2014-08-03T00:45:00,3,20952314,190555
OK,30,64,829,30,2014-08-03T00:50:00,1,20952763,190555
OK,37,52,829,37,2014-08-03T00:55:00,1,20953212,190555
OK,37,52,829,37,2014-08-03T01:00:00,1,20953661,190555
OK,37,52,829,37,2014-08-03T01:05:00,0,20954110,190555
OK,37,52,829,37,2014-08-03T01:10:00,0,20954559,190555
OK,37,52,829,37,2014-08-03T01:15:00,0,20955008,190555
OK,37,52,829,37,2014-08-03T01:20:00,0,20955457,190555
OK,37,52,829,37,2014-08-03T01:25:00,0,20955906,190555
OK,32,60,829,32,2014-08-03T01:30:00,1,20956355,190555
OK,32,60,829,32,2014-08-03T01:35:00,0,20956804,190555